SCP
0 0 0 0 0 0 0 0 0 0 0 0 0 0 0 0 0 0 0 0 1 1 1 2 4 6 4 3 2 3 4 4 4 4 4 3 4 4 6 5 7 6 7 5
0 0 0 0 0 0 0 0 0 0 0 0 0 0 0 0 0 0 1 0 0 1 1 2 5 8 9 7 6 6 6 6 6 5 4 3 4 4 5 6 6 7 5 5
0 0 0 0 0 0 0 0 0 0 0 0 0 0 0 0 0 0 0 0 0 2 3 3 5 7 9 12 10 10 9 8 7 6 5 4 4 5 6 5 7 7 6 7
0 0 0 -0 0 0 0 0 0 0 0 0 0 0 0 0 0 0 0 0 0 1 3 3 3 5 8 9 12 12 11 9 8 7 5 5 6 5 5 5 5 7 7 7
0 0 0 0 0 0 -0 -0 0 0 0 0 0 0 0 0 0 1 1 1 1 2 3 5 2 4 5 7 8 9 11 8 7 8 7 5 4 4 4 4 5 5 5 5
0 0 0 0 -0 0 0 0 0 0 0 0 0 0 0 0 0 0 1 1 1 1 2 7 6 5 5 8 8 7 7 9 9 7 5 4 3 3 3 4 5 3 5 3
0 0 0 0 0 0 0 0 0 0 0 0 0 0 1 0 1 4 3 3 2 4 8 9 9 7 7 11 9 8 10 9 6 6 4 3 3 3 4 5 5 4 3 4
0 0 0 0 0 0 0 1 0 0 0 1 0 0 0 2 3 2 2 3 4 9 10 11 9 9 10 11 10 11 7 5 5 4 4 2 4 3 3 3 2 2 4 3
0 0 0 0 0 0 0 0 1 1 0 0 0 0 2 2 2 3 3 3 6 9 12 13 12 10 13 15 12 9 7 7 6 5 5 3 4 5 4 3 2 2 3 3
0 0 0 0 0 0 0 0 0 0 1 0 0 1 1 1 2 3 4 5 4 5 7 8 9 9 13 12 8 8 8 7 5 7 5 3 3 2 2 2 4 4 3 3
0 0 0 0 0 0 0 0 0 0 0 0 0 1 1 2 3 4 4 3 3 4 4 4 5 5 6 5 4 4 4 3 2 2 2 1 0 0 2 0 1 2 2 1
0 0 0 0 0 0 0 0 0 0 0 0 1 2 2 3 3 4 2 2 2 2 2 2 2 3 3 3 3 2 2 1 1 2 1 1 0 0 0 0 0 0 0 0
0 0 0 0 0 0 0 0 0 0 0 1 2 2 2 1 1 0 1 0 0 0 1 1 1 2 3 3 3 2 3 2 1 2 2 2 0 0 0 0 0 0 0 0
0 0 0 0 0 0 1 1 0 1 2 3 1 1 1 1 0 0 0 0 0 0 1 1 1 1 1 1 2 2 1 1 1 1 2 1 1 0 0 0 0 0 0 0
0 0 0 0 0 0 0 1 1 2 1 1 1 1 0 0 1 1 1 0 0 0 1 1 1 1 0 0 0 0 0 0 0 0 0 -0 0 0 0 0 0 0 0 0
0 0 0 0 0 1 0 1 1 1 1 1 1 0 1 1 1 0 0 0 0 0 0 0 0 0 0 0 0 0 0 0 0 1 0 0 0 0 0 0 0 0 0 0
0 0 0 0 0 0 0 0 1 1 1 0 1 1 1 0 0 0 0 1 1 0 0 0 0 0 0 0 -0 0 0 0 0 0 0 0 0 0 0 0 0 0 0 0
0 -0 -0 0 0 0 0 0 1 1 1 1 1 1 1 0 0 0 0 0 0 0 0 0 0 0 0 0 0 0 0 0 0 0 0 0 0 0 0 0 0 0 0 0
0 0 0 0 0 0 0 1 0 1 1 0 0 0 0 0 0 0 0 0 0 1 1 0 0 0 0 0 0 0 0 0 0 0 0 0 0 0 0 0 0 0 0 0
0 0 0 0 0 0 0 0 1 0 0 0 1 1 0 0 0 0 0 0 0 0 0 0 0 0 0 0 -0 0 0 0 0 0 0 0 0 0 0 0 0 0 0 0
0 0 0 0 0 0 1 0 0 0 0 1 1 1 1 1 1 0 1 0 1 0 0 0 0 0 0 0 0 0 0 0 0 0 0 0 0 0 0 0 0 0 0 0
0 0 0 0 0 0 0 0 0 0 0 0 0 1 1 1 0 0 1 1 0 0 0 0 0 0 0 0 0 0 0 0 0 0 0 0 0 0 0 0 0 0 0 0
0 0 0 0 0 0 0 0 0 0 0 0 0 0 0 0 0 0 0 1 0 0 0 0 0 0 0 0 0 0 0 0 0 0 0 0 0 0 0 0 0 0 0 0
0 0 0 0 0 0 0 0 0 0 0 0 0 0 0 0 0 0 0 0 0 0 0 0 0 0 0 0 0 0 0 0 0 0 0 0 0 0 0 0 0 0 0 0
0 0 0 0 0 0 0 0 0 0 0 0 0 0 0 0 0 0 0 0 0 0 0 0 0 0 0 0 0 0 0 0 0 0 0 0 0 0 0 0 0 0 0 0
-0 -0 -0 -0 -0 -0 -0 -0 -0 -0 0 0 0 0 0 0 0 0 0 0 0 0 0 0 0 0 0 0 0 0 0 0 0 -0 0 0 0 0 0 0 0 0 0 -0
-0 -0 -0 -0 -0 -0 -0 -0 -0 -0 0 0 0 0 0 0 0 0 0 0 0 0 0 0 0 0 0 0 0 0 0 0 0 0 0 0 0 0 0 0 0 -0 -0 0
Wind_Speed_500mb
53 55 50 47 49 53 51 45 42 36 43 31 28 15 25 36 34 25 21 22 23 22 22 23 43 72 79 79 77 79 80 80 82 73 70 65 63 59 53 47 48 49 53 53
47 50 55 53 46 54 55 53 48 46 45 35 43 46 33 26 32 28 21 24 16 21 23 29 31 52 62 61 70 72 75 77 71 67 63 62 56 46 44 47 43 48 51 42
38 44 46 46 53 47 49 49 46 44 37 36 36 21 18 19 30 40 39 35 28 41 40 42 48 48 55 56 55 64 71 71 67 61 54 47 47 46 48 48 47 47 42 41
29 30 49 33 44 50 47 37 42 37 36 28 22 36 45 34 20 19 21 18 24 8 35 42 49 56 53 57 63 61 64 64 59 54 47 49 51 49 45 42 36 34 32 28
26 35 26 46 33 43 46 45 36 31 27 27 33 40 44 29 19 16 20 25 28 19 17 40 42 45 49 50 57 60 58 52 46 48 52 46 42 37 30 32 30 30 25 25
27 41 54 27 40 14 12 30 30 32 22 26 29 23 17 22 29 34 37 38 35 26 21 41 38 41 46 43 45 44 43 46 54 50 40 38 37 27 25 20 20 20 20 23
26 31 31 23 38 39 32 12 14 26 38 39 27 23 22 35 34 17 15 31 25 20 36 35 40 44 44 43 43 43 49 52 48 44 40 38 32 30 35 37 36 31 32 29
24 31 34 27 34 24 18 26 14 17 14 10 35 29 47 23 13 10 15 16 21 28 32 34 39 45 46 41 44 49 41 42 39 36 36 34 37 36 27 32 27 32 25 27
24 24 12 24 21 32 33 12 20 27 21 17 13 11 22 27 24 26 28 31 34 41 43 40 40 42 50 49 49 46 40 41 43 38 26 25 25 21 32 26 21 25 26 36
39 35 34 38 44 45 36 36 11 17 22 20 23 22 27 25 25 30 36 39 39 43 42 45 45 55 61 55 50 49 48 45 35 36 32 31 19 21 24 30 30 29 35 38
35 26 54 47 72 64 54 47 39 18 20 20 15 22 24 28 35 37 39 40 44 49 48 47 46 46 53 49 45 43 38 36 31 30 28 32 34 30 34 32 28 29 33 34
5 34 35 25 38 46 62 60 60 28 20 14 11 26 35 40 43 45 44 45 46 47 46 43 43 43 42 40 40 37 36 33 29 28 29 33 39 41 37 32 32 32 29 28
30 49 46 42 44 39 41 49 61 27 26 19 28 41 43 45 44 50 49 47 45 44 43 43 45 44 38 39 35 29 27 23 20 20 22 35 35 35 31 31 22 22 18 19
54 58 51 34 48 51 58 56 27 20 27 36 41 46 50 54 57 53 51 49 48 45 43 41 38 40 39 37 33 33 24 21 26 26 28 21 24 31 29 28 21 24 24 19
54 42 42 51 50 57 47 27 27 39 40 49 53 52 52 56 54 52 54 51 46 43 41 38 35 29 22 21 19 18 18 22 19 21 14 19 17 18 14 21 19 18 25 25
47 44 41 48 52 64 55 24 37 43 49 48 50 54 53 55 56 53 45 44 45 41 36 34 28 23 21 16 21 17 13 22 15 23 14 21 13 11 23 29 22 14 24 31
49 43 43 52 54 49 57 39 50 48 44 48 52 55 55 51 50 47 43 38 40 35 34 30 26 21 12 16 20 12 8 22 19 18 16 21 21 15 15 24 22 11 19 22
46 49 47 56 59 56 62 40 50 52 52 51 49 50 50 50 48 45 40 39 37 32 30 27 23 19 16 14 18 12 17 12 17 14 27 25 19 25 21 29 35 28 30 17
46 52 49 47 55 59 48 63 64 58 50 47 47 46 44 42 43 41 38 40 38 38 30 25 20 16 14 15 23 12 11 20 14 9 23 15 17 19 20 25 34 37 43 34
44 46 36 14 22 24 38 64 61 51 48 46 44 41 40 38 37 37 36 30 30 30 27 23 19 10 7 15 25 12 13 12 10 11 17 18 20 31 25 20 37 45 35 31
25 30 56 61 60 62 55 57 50 44 40 37 38 38 37 35 33 36 37 26 27 28 24 21 19 13 8 4 22 6 11 16 11 13 17 19 9 16 17 29 39 37 28 33
52 61 68 68 62 54 45 41 35 30 27 29 29 32 32 30 30 27 20 24 34 31 18 16 17 16 15 11 9 5 12 12 10 8 9 9 12 21 28 34 40 40 43 40
72 66 71 67 58 52 43 33 30 28 25 23 25 27 25 25 23 26 19 28 29 34 15 30 18 13 12 22 9 9 6 5 6 7 9 15 17 18 26 39 29 29 33 28
78 72 63 59 54 36 34 32 20 27 31 28 22 26 21 21 18 13 25 30 28 33 17 20 14 11 20 17 13 14 13 10 13 12 11 12 19 25 30 40 33 34 30 32
66 62 57 49 37 34 33 29 26 25 23 23 25 23 15 24 18 17 19 20 26 21 21 16 12 26 27 12 22 23 10 11 13 17 17 24 16 20 26 23 24 33 31 37
58 49 35 28 24 33 15 21 21 18 22 26 23 21 16 10 10 7 13 16 26 19 10 21 30 30 11 10 14 23 16 17 14 16 19 22 27 24 26 26 28 28 29 28
27 22 33 29 29 24 23 22 20 22 17 21 20 14 12 11 14 16 16 16 16 22 19 21 20 14 14 17 13 16 12 12 15 19 19 22 26 22 34 32 29 23 26 28
Wind_Direction_500mb
227 250 239 203 210 221 236 235 234 237 245 252 261 245 198 200 187 219 206 212 204 230 255 255 221 207 206 210 212 211 213 221 228 233 237 234 234 239 240 240 235 233 234 257
236 233 247 257 228 213 224 235 246 244 252 253 230 255 248 182 187 200 224 242 233 215 235 228 217 209 206 210 210 211 213 216 222 230 233 230 231 227 224 228 230 235 246 241
234 232 247 248 244 230 214 226 237 241 246 253 261 267 269 242 233 202 213 229 244 231 223 221 219 218 204 201 206 212 212 213 219 223 225 222 217 216 218 218 224 232 236 228
232 226 235 252 240 248 255 239 217 237 245 239 247 274 274 268 245 274 242 239 284 291 220 229 223 223 214 210 206 205 205 206 214 219 213 210 217 219 215 225 227 227 220 223
235 227 247 248 247 235 237 246 255 226 231 244 243 253 256 265 274 256 260 254 261 248 256 232 218 214 206 200 204 201 200 205 202 205 204 211 211 211 212 219 219 225 202 213
215 228 225 220 223 136 336 241 237 251 248 247 241 248 257 262 270 271 265 268 257 255 247 204 200 200 190 189 185 185 183 184 193 199 192 190 194 196 196 205 199 205 187 184
224 227 244 248 248 257 244 257 249 246 236 238 245 258 274 237 242 247 248 228 224 196 182 187 190 191 178 177 174 176 185 191 195 182 186 182 168 178 186 175 179 192 212 199
230 240 240 248 266 268 356 354 317 277 264 356 244 265 242 216 181 172 145 156 161 164 173 173 177 172 169 181 176 178 189 175 167 172 164 173 175 179 204 207 185 188 192 184
236 233 289 299 324 315 307 291 348 8 6 342 343 61 119 138 143 149 152 146 152 153 146 153 165 176 163 161 161 168 166 153 165 162 167 178 196 182 172 183 182 196 211 216
240 254 260 277 279 287 292 309 337 324 329 322 301 177 143 142 144 140 137 134 136 134 142 154 167 157 153 152 165 166 162 166 171 160 155 165 173 171 170 195 195 213 223 220
249 246 251 255 248 270 282 287 295 283 296 290 268 140 144 140 136 132 131 131 134 138 135 136 147 155 164 162 160 158 160 155 154 150 161 175 179 188 197 203 217 219 215 225
273 2 340 301 266 258 262 263 268 285 283 267 188 146 143 133 131 130 130 132 132 134 135 138 145 144 145 148 156 158 152 154 156 168 180 190 195 195 195 220 214 227 219 223
317 327 322 319 319 290 289 280 252 250 254 187 154 147 145 138 137 136 132 136 137 133 133 136 138 140 141 145 138 132 150 165 165 175 189 196 205 217 214 206 206 218 208 193
297 310 312 317 316 308 302 291 211 203 156 148 141 143 140 141 137 136 136 139 140 138 134 134 139 142 147 151 162 164 169 173 186 195 199 224 232 229 222 204 207 193 191 198
277 281 278 299 302 301 296 268 162 151 152 145 145 142 147 139 139 137 137 137 138 139 142 142 142 143 148 148 149 140 133 137 127 164 141 149 181 205 188 173 178 201 206 192
286 283 286 291 293 297 283 215 177 162 150 151 149 148 147 142 137 140 140 143 140 140 138 137 138 135 130 131 114 137 149 168 156 149 147 162 147 149 173 168 187 202 188 185
283 286 281 287 289 285 297 213 159 152 161 158 154 146 140 141 139 142 139 147 149 142 134 132 125 123 124 123 143 166 140 184 174 159 159 178 181 194 194 179 172 182 175 190
267 271 279 275 287 280 292 171 155 157 156 151 146 146 148 146 145 143 147 142 140 137 140 143 145 139 143 157 153 176 180 163 183 198 198 185 173 179 201 171 177 165 179 181
263 277 275 280 283 278 266 159 151 146 144 145 149 154 150 147 146 149 151 151 151 147 149 159 140 134 158 169 160 167 189 180 156 155 166 183 181 185 191 183 176 181 193 185
268 271 285 279 159 158 141 125 128 135 145 153 145 139 140 144 150 152 154 160 177 182 169 147 134 151 146 159 167 160 179 187 189 204 178 156 137 151 159 170 187 182 186 178
243 169 148 127 108 116 110 114 122 128 133 139 146 145 142 144 146 151 156 144 150 157 152 141 145 182 151 149 175 186 216 177 143 131 168 165 172 206 208 191 176 173 168 162
115 105 111 116 108 103 104 109 114 120 132 145 148 148 142 147 153 156 181 181 168 159 152 154 175 195 154 167 156 166 137 128 129 144 149 202 171 189 185 176 165 173 186 187
91 91 89 93 92 92 97 108 111 120 122 142 145 138 152 160 165 181 164 167 162 161 164 180 193 200 212 169 166 169 167 140 162 192 201 206 206 187 168 163 164 180 179 185
74 74 72 83 89 103 108 98 121 148 136 133 134 142 128 149 147 105 152 159 164 173 178 186 198 226 185 163 167 162 165 175 164 183 183 187 171 176 169 171 168 166 178 178
84 82 76 78 82 78 87 90 93 98 106 123 111 103 106 116 130 147 159 165 171 167 200 190 195 165 156 168 190 174 146 136 156 150 128 149 140 152 169 169 174 169 185 164
88 88 94 89 98 88 110 117 100 134 147 120 104 97 93 101 132 119 151 155 171 152 173 172 161 159 137 160 165 162 152 146 151 174 163 167 162 162 171 172 178 187 171 163
88 96 107 114 106 121 124 130 152 147 116 107 93 107 96 112 138 132 151 152 155 161 156 156 167 164 172 175 161 159 159 167 161 166 176 173 184 184 182 179 180 168 182 181
Wind_Speed_850mb
53 55 50 47 49 53 51 45 42 36 43 31 28 15 25 36 34 25 21 22 23 22 22 23 43 72 79 79 77 79 80 80 82 73 70 65 63 59 53 47 48 49 53 53
47 50 55 53 46 54 55 53 48 46 45 35 43 46 33 26 32 28 21 24 16 21 23 29 31 52 62 61 70 72 75 77 71 67 63 62 56 46 44 47 43 48 51 42
38 44 46 46 53 47 49 49 46 44 37 36 36 21 18 19 30 40 39 35 28 41 40 42 48 48 55 56 55 64 71 71 67 61 54 47 47 46 48 48 47 47 42 41
29 30 49 33 44 50 47 37 42 37 36 28 22 36 45 34 20 19 21 18 24 8 35 42 49 56 53 57 63 61 64 64 59 54 47 49 51 49 45 42 36 34 32 28
26 35 26 46 33 43 46 45 36 31 27 27 33 40 44 29 19 16 20 25 28 19 17 40 42 45 49 50 57 60 58 52 46 48 52 46 42 37 30 32 30 30 25 25
27 41 54 27 40 14 12 30 30 32 22 26 29 23 17 22 29 34 37 38 35 26 21 41 38 41 46 43 45 44 43 46 54 50 40 38 37 27 25 20 20 20 20 23
26 31 31 23 38 39 32 12 14 26 38 39 27 23 22 35 34 17 15 31 25 20 36 35 40 44 44 43 43 43 49 52 48 44 40 38 32 30 35 37 36 31 32 29
24 31 34 27 34 24 18 26 14 17 14 10 35 29 47 23 13 10 15 16 21 28 32 34 39 45 46 41 44 49 41 42 39 36 36 34 37 36 27 32 27 32 25 27
24 24 12 24 21 32 33 12 20 27 21 17 13 11 22 27 24 26 28 31 34 41 43 40 40 42 50 49 49 46 40 41 43 38 26 25 25 21 32 26 21 25 26 36
39 35 34 38 44 45 36 36 11 17 22 20 23 22 27 25 25 30 36 39 39 43 42 45 45 55 61 55 50 49 48 45 35 36 32 31 19 21 24 30 30 29 35 38
35 26 54 47 72 64 54 47 39 18 20 20 15 22 24 28 35 37 39 40 44 49 48 47 46 46 53 49 45 43 38 36 31 30 28 32 34 30 34 32 28 29 33 34
5 34 35 25 38 46 62 60 60 28 20 14 11 26 35 40 43 45 44 45 46 47 46 43 43 43 42 40 40 37 36 33 29 28 29 33 39 41 37 32 32 32 29 28
30 49 46 42 44 39 41 49 61 27 26 19 28 41 43 45 44 50 49 47 45 44 43 43 45 44 38 39 35 29 27 23 20 20 22 35 35 35 31 31 22 22 18 19
54 58 51 34 48 51 58 56 27 20 27 36 41 46 50 54 57 53 51 49 48 45 43 41 38 40 39 37 33 33 24 21 26 26 28 21 24 31 29 28 21 24 24 19
54 42 42 51 50 57 47 27 27 39 40 49 53 52 52 56 54 52 54 51 46 43 41 38 35 29 22 21 19 18 18 22 19 21 14 19 17 18 14 21 19 18 25 25
47 44 41 48 52 64 55 24 37 43 49 48 50 54 53 55 56 53 45 44 45 41 36 34 28 23 21 16 21 17 13 22 15 23 14 21 13 11 23 29 22 14 24 31
49 43 43 52 54 49 57 39 50 48 44 48 52 55 55 51 50 47 43 38 40 35 34 30 26 21 12 16 20 12 8 22 19 18 16 21 21 15 15 24 22 11 19 22
46 49 47 56 59 56 62 40 50 52 52 51 49 50 50 50 48 45 40 39 37 32 30 27 23 19 16 14 18 12 17 12 17 14 27 25 19 25 21 29 35 28 30 17
46 52 49 47 55 59 48 63 64 58 50 47 47 46 44 42 43 41 38 40 38 38 30 25 20 16 14 15 23 12 11 20 14 9 23 15 17 19 20 25 34 37 43 34
44 46 36 14 22 24 38 64 61 51 48 46 44 41 40 38 37 37 36 30 30 30 27 23 19 10 7 15 25 12 13 12 10 11 17 18 20 31 25 20 37 45 35 31
25 30 56 61 60 62 55 57 50 44 40 37 38 38 37 35 33 36 37 26 27 28 24 21 19 13 8 4 22 6 11 16 11 13 17 19 9 16 17 29 39 37 28 33
52 61 68 68 62 54 45 41 35 30 27 29 29 32 32 30 30 27 20 24 34 31 18 16 17 16 15 11 9 5 12 12 10 8 9 9 12 21 28 34 40 40 43 40
72 66 71 67 58 52 43 33 30 28 25 23 25 27 25 25 23 26 19 28 29 34 15 30 18 13 12 22 9 9 6 5 6 7 9 15 17 18 26 39 29 29 33 28
78 72 63 59 54 36 34 32 20 27 31 28 22 26 21 21 18 13 25 30 28 33 17 20 14 11 20 17 13 14 13 10 13 12 11 12 19 25 30 40 33 34 30 32
66 62 57 49 37 34 33 29 26 25 23 23 25 23 15 24 18 17 19 20 26 21 21 16 12 26 27 12 22 23 10 11 13 17 17 24 16 20 26 23 24 33 31 37
58 49 35 28 24 33 15 21 21 18 22 26 23 21 16 10 10 7 13 16 26 19 10 21 30 30 11 10 14 23 16 17 14 16 19 22 27 24 26 26 28 28 29 28
27 22 33 29 29 24 23 22 20 22 17 21 20 14 12 11 14 16 16 16 16 22 19 21 20 14 14 17 13 16 12 12 15 19 19 22 26 22 34 32 29 23 26 28
Wind_Direction_850mb
227 250 239 203 210 221 236 235 234 237 245 252 261 245 198 200 187 219 206 212 204 230 255 255 221 207 206 210 212 211 213 221 228 233 237 234 234 239 240 240 235 233 234 257
236 233 247 257 228 213 224 235 246 244 252 253 230 255 248 182 187 200 224 242 233 215 235 228 217 209 206 210 210 211 213 216 222 230 233 230 231 227 224 228 230 235 246 241
234 232 247 248 244 230 214 226 237 241 246 253 261 267 269 242 233 202 213 229 244 231 223 221 219 218 204 201 206 212 212 213 219 223 225 222 217 216 218 218 224 232 236 228
232 226 235 252 240 248 255 239 217 237 245 239 247 274 274 268 245 274 242 239 284 291 220 229 223 223 214 210 206 205 205 206 214 219 213 210 217 219 215 225 227 227 220 223
235 227 247 248 247 235 237 246 255 226 231 244 243 253 256 265 274 256 260 254 261 248 256 232 218 214 206 200 204 201 200 205 202 205 204 211 211 211 212 219 219 225 202 213
215 228 225 220 223 136 336 241 237 251 248 247 241 248 257 262 270 271 265 268 257 255 247 204 200 200 190 189 185 185 183 184 193 199 192 190 194 196 196 205 199 205 187 184
224 227 244 248 248 257 244 257 249 246 236 238 245 258 274 237 242 247 248 228 224 196 182 187 190 191 178 177 174 176 185 191 195 182 186 182 168 178 186 175 179 192 212 199
230 240 240 248 266 268 356 354 317 277 264 356 244 265 242 216 181 172 145 156 161 164 173 173 177 172 169 181 176 178 189 175 167 172 164 173 175 179 204 207 185 188 192 184
236 233 289 299 324 315 307 291 348 8 6 342 343 61 119 138 143 149 152 146 152 153 146 153 165 176 163 161 161 168 166 153 165 162 167 178 196 182 172 183 182 196 211 216
240 254 260 277 279 287 292 309 337 324 329 322 301 177 143 142 144 140 137 134 136 134 142 154 167 157 153 152 165 166 162 166 171 160 155 165 173 171 170 195 195 213 223 220
249 246 251 255 248 270 282 287 295 283 296 290 268 140 144 140 136 132 131 131 134 138 135 136 147 155 164 162 160 158 160 155 154 150 161 175 179 188 197 203 217 219 215 225
273 2 340 301 266 258 262 263 268 285 283 267 188 146 143 133 131 130 130 132 132 134 135 138 145 144 145 148 156 158 152 154 156 168 180 190 195 195 195 220 214 227 219 223
317 327 322 319 319 290 289 280 252 250 254 187 154 147 145 138 137 136 132 136 137 133 133 136 138 140 141 145 138 132 150 165 165 175 189 196 205 217 214 206 206 218 208 193
297 310 312 317 316 308 302 291 211 203 156 148 141 143 140 141 137 136 136 139 140 138 134 134 139 142 147 151 162 164 169 173 186 195 199 224 232 229 222 204 207 193 191 198
277 281 278 299 302 301 296 268 162 151 152 145 145 142 147 139 139 137 137 137 138 139 142 142 142 143 148 148 149 140 133 137 127 164 141 149 181 205 188 173 178 201 206 192
286 283 286 291 293 297 283 215 177 162 150 151 149 148 147 142 137 140 140 143 140 140 138 137 138 135 130 131 114 137 149 168 156 149 147 162 147 149 173 168 187 202 188 185
283 286 281 287 289 285 297 213 159 152 161 158 154 146 140 141 139 142 139 147 149 142 134 132 125 123 124 123 143 166 140 184 174 159 159 178 181 194 194 179 172 182 175 190
267 271 279 275 287 280 292 171 155 157 156 151 146 146 148 146 145 143 147 142 140 137 140 143 145 139 143 157 153 176 180 163 183 198 198 185 173 179 201 171 177 165 179 181
263 277 275 280 283 278 266 159 151 146 144 145 149 154 150 147 146 149 151 151 151 147 149 159 140 134 158 169 160 167 189 180 156 155 166 183 181 185 191 183 176 181 193 185
268 271 285 279 159 158 141 125 128 135 145 153 145 139 140 144 150 152 154 160 177 182 169 147 134 151 146 159 167 160 179 187 189 204 178 156 137 151 159 170 187 182 186 178
243 169 148 127 108 116 110 114 122 128 133 139 146 145 142 144 146 151 156 144 150 157 152 141 145 182 151 149 175 186 216 177 143 131 168 165 172 206 208 191 176 173 168 162
115 105 111 116 108 103 104 109 114 120 132 145 148 148 142 147 153 156 181 181 168 159 152 154 175 195 154 167 156 166 137 128 129 144 149 202 171 189 185 176 165 173 186 187
91 91 89 93 92 92 97 108 111 120 122 142 145 138 152 160 165 181 164 167 162 161 164 180 193 200 212 169 166 169 167 140 162 192 201 206 206 187 168 163 164 180 179 185
74 74 72 83 89 103 108 98 121 148 136 133 134 142 128 149 147 105 152 159 164 173 178 186 198 226 185 163 167 162 165 175 164 183 183 187 171 176 169 171 168 166 178 178
84 82 76 78 82 78 87 90 93 98 106 123 111 103 106 116 130 147 159 165 171 167 200 190 195 165 156 168 190 174 146 136 156 150 128 149 140 152 169 169 174 169 185 164
88 88 94 89 98 88 110 117 100 134 147 120 104 97 93 101 132 119 151 155 171 152 173 172 161 159 137 160 165 162 152 146 151 174 163 167 162 162 171 172 178 187 171 163
88 96 107 114 106 121 124 130 152 147 116 107 93 107 96 112 138 132 151 152 155 161 156 156 167 164 172 175 161 159 159 167 161 166 176 173 184 184 182 179 180 168 182 181